Terminal Aerodrome Forecast
Issued by NWS

Home | Current Version | Previous Version | Text Only | Print | Product List | Glossary On
Versions: 1 2 3 4 5 6 7 8 9 10 11 12 13 14 15 16 17 18 19 20 21
000
FTUS43 KABR 252300
TAFATY
TAF
KATY 252321Z 2600/2624 12005KT P6SM SKC
     FM261200 14008KT P6SM SKC WS013/19030KT
     FM261500 16015G21KT P6SM SCT250=

USA.gov is the U.S. government's official web portal to all federal, state and local government web resources and services.